Regional Weather Roundup
Issued by NWS Cleveland, OH

Home | Current Version | Previous Version | Graphics & Text | Print | Product List | Glossary On
Versions: 1 2 3 4 5 6 7 8 9 10 11 12 13 14 15 16 17 18 19 20 21 22 23 24 25 26 27 28 29 30 31 32 33 34 35 36 37 38 39 40 41 42 43 44 45 46 47 48 49 50
000
ASUS41 KCLE 261410
RWRCLE
OHIO REGIONAL WEATHER ROUNDUP
NATIONAL WEATHER SERVICE WILMINGTON, OH
900 AM EST WED NOV 26 2014

NOTE: "FAIR" INDICATES FEW OR NO CLOUDS BELOW 12,000 FEET WITH NO
SIGNIFICANT WEATHER AND/OR OBSTRUCTIONS TO VISIBILITY.

OHZ001>008-015>018-024>027-034-035-043-044-261500-
   NORTHWEST OHIO

CITY           SKY/WX    TMP DP  RH WIND       PRES   REMARKS
DEFIANCE       NOT AVBL
FINDLAY        CLOUDY    30  21  69 NE6       30.14S WCI  24
TOLEDO EXPRESS CLOUDY    28  21  75 CALM      30.17R
TOLEDO METCALF CLOUDY    30  22  72 CALM      30.18S
LIMA           CLOUDY    29  21  72 NE9       30.14R WCI  20
$$

OHZ009>014-019>023-028>033-038-089-261500-
   NORTHEAST OHIO

CITY           SKY/WX    TMP DP  RH WIND       PRES   REMARKS
CLE-HOPKINS    CLOUDY    33  24  69 E5        30.16F WCI  29
CLE-LAKEFRONT  CLOUDY    34  25  69 NE5       30.14F WCI  30
CUY CO. ARPT   CLOUDY    34  28  80 E5        30.15S WCI  30
LORAIN-ELYRIA  CLOUDY    31  26  82 CALM      30.15S
ASHTABULA      CLOUDY    33  25  72 CALM      30.14F
AKRON-CANTON   CLOUDY    31  24  75 NE9       30.08F WCI  23
WOOSTER        PTSUNNY   30  25  81 N7        30.09F WCI  23
MANSFIELD      CLOUDY    29  24  82 N5        30.10F WCI  24
YOUNGSTOWN     CLOUDY    31  25  78 NE8       30.08F WCI  23
$$

OHZ042-051>053-060>062-070>072-077>081-261500-
  SOUTHWEST OHIO

CITY           SKY/WX    TMP DP  RH WIND       PRES   REMARKS
CINC-COVINGTON CLOUDY    30  24  78 N6        30.12S WCI  24
CINC-LUNKEN    CLOUDY    29  25  85 NE5       30.16S WCI  24
HAMILTON       CLOUDY    31  27  85 N6        30.15S WCI  25
DAYTON         CLOUDY    30  24  78 N5        30.14R WCI  25
WRIGHT-PAT AFB CLOUDY    29  25  82 N6        30.13S WCI  23
DAYTON GENERAL CLOUDY    30  25  81 N8        30.12R WCI  22
WILMINGTON     CLOUDY    28  24  85 N12       30.11S WCI  18
$$

OHZ036-037-039>041-045>050-054>059-063>069-073>076-082>088-261500-
  CENTRAL AND SOUTHEAST OHIO

CITY           SKY/WX    TMP DP  RH WIND       PRES   REMARKS
COLUMBUS       CLOUDY    30  25  81 N7        30.09F WCI  23
OSU AIRPORT    CLOUDY    30  25  81 N9        30.10F WCI  22
BOLTON FIELD   CLOUDY    30  27  86 N9        30.10S WCI  22
RICKENBACK AFB CLOUDY    31  26  82 N10       30.09F WCI  22
NEWARK         PTSUNNY   31  25  78 N7        30.08F WCI  24
MARION         CLOUDY    30  23  75 NE6       30.12S WCI  24
LANCASTER      PTSUNNY   31  27  85 N5        30.09F WCI  26
ZANESVILLE     CLOUDY    31  26  82 N6        30.08R WCI  25
NEW PHILLY     CLOUDY    33  26  75 N5        30.09F WCI  29
$$


USA.gov is the U.S. government's official web portal to all federal, state and local government web resources and services.